Flag Weather past 2 weeks in Cape Dorset, Nunavut Territory, Canada

Now
25 °F

Partly sunny.


Feels Like: 10 °F
Forecast: 21 / 28 °F
Wind: 23 mph from Northwest

Location: Cape Dorset

Current Time: Oct 31, 2014 at 11:53:03 AM

Latest Report: Oct 31, 2014 at 11:00 AM


Visibility: 15 mi

Pressure: 29.76 "Hg

Humidity: 86%

Dew point: 21 °F

Location of Cape DorsetLocation

Historic Weather in Cape Dorset — Graph

°F

Cape Dorset temperature yesterday

Maximum temperature yesterday: 21 °F (at 12:00 AM)
Minimum temperature yesterday: 19 °F (at 8:00 AM)
Average temperature yesterday: 20 °F

Past Weeks' High & Low Weather Summary

 TemperatureHumidityPressure
High34 °F (Oct 22, 12:49 AM)100% (Oct 16, 10:00 PM)30.30 "Hg (Oct 16, 10:00 PM)
Low14 °F (Oct 23, 6:54 PM)68% (Oct 23, 3:00 PM)29.43 "Hg (Oct 22, 7:00 AM)
Average25 °F86%29.91 "Hg
* Reported Oct 16 10:00 AM — Oct 31 10:00 AM, Cape Dorset, Weather by CustomWeather, © 2014

Note: Actual official high and low records may vary slightly from our data, if they occured in-between our weather recording intervals... More about our weather records

Advertising

Cape Dorset weather history for previous 24 hours

 ConditionsComfort  
Time TempWeatherWind HumidityBarometerVisibility
10:00 AM
Oct 31
25 °FPartly sunny.22 mph86%29.76 "Hg15 mi
9:00 AM23 °FPartly sunny.17 mph93%29.76 "Hg15 mi
8:00 AM23 °FLight snow. Broken clouds.18 mph86%29.76 "Hg15 mi
7:00 AM23 °FLight snow. Mostly cloudy.18 mph86%29.76 "Hg15 mi
6:53 AM23 °FLight snow. Mostly cloudy.17 mph86%29.76 "Hg9 mi
6:00 AM21 °FOvercast.20 mph93%29.77 "Hg9 mi
5:00 AM23 °FMostly cloudy.21 mph86%29.76 "Hg9 mi
4:00 AM21 °FOvercast.21 mph86%29.76 "Hg9 mi
3:00 AM21 °FMostly cloudy.24 mph86%29.75 "Hg9 mi
2:00 AM21 °FLight snow. Mostly cloudy.35 mph86%29.74 "Hg5 mi
1:00 AM21 °FLight snow. Overcast.31 mph86%29.75 "Hg3 mi
12:49 AM21 °FLight snow. Overcast.28 mph86%29.75 "Hg3 mi
12:00 AM21 °FLight snow. Overcast.29 mph86%29.75 "Hg2 mi
11:00 PM
Oct 30
21 °FLight snow. Overcast.23 mph86%29.76 "Hg5 mi
10:01 PM19 °FLight snow. Overcast.29 mph86%29.76 "Hg3 mi
9:02 PM19 °FLight snow. Passing clouds.25 mph93%29.76 "Hg2 mi
8:00 PM19 °FLight snow. Mostly cloudy.25 mph86%29.76 "Hg2 mi
7:00 PM19 °FLight snow. Mostly cloudy.30 mph86%29.76 "Hg5 mi
6:49 PM19 °FLight snow. Overcast.25 mph86%29.76 "Hg5 mi
6:04 PM19 °FLight snow. Passing clouds.18 mph86%29.77 "Hg9 mi
5:00 PM19 °FLight snow. Passing clouds.23 mph86%29.76 "Hg3 mi
4:52 PM19 °FLight snow. Passing clouds.23 mph86%29.75 "Hg3 mi
4:00 PM19 °FLight snow. Mostly cloudy.15 mph86%29.77 "Hg3 mi
3:00 PM19 °FLight snow. Overcast.14 mph86%29.78 "Hg6 mi
2:58 PM19 °FLight snow. Overcast.14 mph86%29.78 "Hg6 mi
2:00 PM19 °FLight snow. Mostly cloudy.17 mph86%29.77 "Hg2 mi
1:59 PM19 °FLight snow. Mostly cloudy.20 mph86%29.77 "Hg2 mi
1:00 PM19 °FLight snow. Mostly cloudy.21 mph86%29.77 "Hg1 mi
12:56 PM19 °FLight snow. Mostly cloudy.16 mph93%29.77 "Hg1 mi
12:00 PM19 °FLight snow. Overcast.21 mph86%29.77 "Hg15 mi
11:00 AM19 °FLight snow. Overcast.18 mph86%29.77 "Hg15 mi
Weather by CustomWeather, © 2014

See weather overviewHow to use our weather pages